Location: Sevilla
(37.3933°N, 5.9839°W)
Time: 06:10:55
(UTC+02:00)

Vanguard 3 - Pass Details

Date: 26 June 2024
Orbit: 508 x 3231 km, 33.4° (Epoch: 15 July)

Event Time Altitude Azimuth Distance (km) Brightness Sun altitude
Rises 06:16:18 0° 194° (SSW) 7,162 11.5 -8.8°
Reaches altitude 10° 06:24:01 10° 178° (S) 5,962 11.2 -7.6°
Maximum altitude 06:33:45 17° 145° (SE) 4,864 11.1 -6.0°
Drops below altitude 10° 06:41:46 10° 111° (ESE) 4,825 11.6 -4.7°
Sets 06:46:47 0° 93° (E) 5,335 12.3 -3.9°
